Location: Bakhuizen
(52.8696°N, 5.4575°E)
Time: 12:34:37
(UTC+00:00)

Nimbus 7 Rocket - Pass Details

Date: 27 September 2021
Orbit: 922 x 965 km, 99.4° (Epoch: 24 October)

Event Time Altitude Azimuth Distance (km) Brightness Sun altitude
Rises 02:14:57 0° 10° (N) 3,583 8.2 -28.4°
Reaches altitude 10° 02:18:55 10° 343° (NNW) 2,639 7.0 -28.0°
Maximum altitude 02:21:15 13° 320° (NW) 2,455 6.6 -27.7°
Enters shadow 02:22:02 12° 311° (NW) 2,477 6.5 -27.6°
